Back to catalog

THORAD AGENA D DEB

AliveLEO
NORAD 4768·DEBRIS·🇺🇸 United States

Launched Apr 8, 1970 from Vandenberg Space Force Base

Loading…

Next Passes

TLE

Source: Space-Track
1  4768U 70025DN  26225.13078325  .00000147  00000-0  21673-3 0  9999
2  4768 100.1610 273.8815 0029522 233.0611 198.2997 13.71778308805661

Track THORAD AGENA D DEB in real time with AllMySat

Download on the App Store